FW6330 Weather Reports


time (UTC)temp
C
wind
direction
speed
KPH
gust
KPH
rain 1hr
cm
rain 24hr
cm
rain mn
cm
humidity
%
barometer
mb
20260510141604 7 201 0.0 0.0 0.00 0.00 0.00 78 1015.1
20260510140053 6 252 0.0 0.0 0.00 0.00 0.00 77 1015.0
20260510134556 6 191 0.0 0.0 0.00 0.00 0.00 75 1014.8
20260510133044 5 139 0.0 0.0 0.00 0.00 0.00 74 1014.8
20260510131539 5 110 0.0 0.0 0.00 0.00 0.00 73 1014.7
20260510130035 5 218 0.0 1.6 0.00 0.00 0.00 73 1014.7
20260510124530 5 13 0.0 1.6 0.00 0.00 0.00 73 1014.8
20260510123028 5 86 0.0 1.6 0.00 0.00 0.00 73 1014.7
20260510121521 5 120 0.0 1.6 0.00 0.00 0.00 73 1014.7
20260510120017 5 115 0.0 0.0 0.00 0.00 0.00 73 1014.8
20260510114514 5 205 0.0 1.6 0.00 0.00 0.00 71 1014.8
20260510113013 5 194 0.0 0.0 0.00 0.00 0.00 72 1014.8
20260510111505 5 165 0.0 0.0 0.00 0.00 0.00 72 1014.9
20260510110002 6 146 0.0 1.6 0.00 0.00 0.00 70 1014.8
20260510104601 6 190 0.0 0.0 0.00 0.00 0.00 70 1014.8
20260510103052 6 44 0.0 1.6 0.00 0.00 0.00 68 1014.8
20260510101547 6 76 0.0 0.0 0.00 0.00 0.00 69 1015.0
20260510100047 6 281 0.0 0.0 0.00 0.00 0.00 70 1015.0
20260510094546 6 282 0.0 0.0 0.00 0.00 0.00 70 1015.2
20260510093055 6 322 0.0 0.0 0.00 0.00 0.00 67 1015.1
20260510091537 6 38 0.0 0.0 0.00 0.00 0.00 69 1015.0
20260510090033 7 333 0.0 1.6 0.00 0.00 0.00 66 1015.2
20260510084531 7 143 0.0 1.6 0.00 0.00 0.00 66 1015.2
20260510083034 7 186 0.0 1.6 0.00 0.00 0.00 64 1015.2
20260510081535 7 108 0.0 1.6 0.00 0.00 0.00 63 1015.3
20260510080015 8 72 0.0 1.6 0.00 0.00 0.00 61 1015.6
20260510074510 7 245 0.0 1.6 0.00 0.00 0.00 63 1015.7
20260510073006 8 153 0.0 3.2 0.00 0.00 0.00 61 1015.8
20260510071502 8 65 0.0 0.0 0.00 0.00 0.00 61 1015.9
20260510070057 9 1 0.0 1.6 0.00 0.00 0.00 59 1015.8
20260510064602 10 134 0.0 1.6 0.00 0.00 0.00 55 1015.8
20260510063056 10 310 0.0 1.6 0.00 0.00 0.00 53 1015.6
20260510061555 10 197 0.0 3.2 0.00 0.00 0.00 52 1015.6
20260510060057 10 309 0.0 3.2 0.00 0.00 0.00 51 1015.7
20260510054553 10 186 0.0 3.2 0.00 0.00 0.00 52 1015.7
20260510053107 10 202 0.0 6.4 0.00 0.00 0.00 54 1015.5
20260510051603 9 131 0.0 1.6 0.00 0.00 0.00 66 1015.5
20260510050100 10 188 0.0 0.0 0.00 0.00 0.00 65 1015.4
20260510044603 11 137 0.0 3.2 0.00 0.00 0.00 56 1015.1
20260510043057 10 143 0.0 4.8 0.00 0.00 0.00 60 1014.9
20260510041550 10 251 0.0 0.0 0.00 0.00 0.00 66 1014.8
20260510040051 11 28 0.0 1.6 0.00 0.00 0.00 69 1014.5
20260510034549 11 277 0.0 1.6 0.00 0.00 0.00 68 1014.4
20260510033106 12 59 0.0 1.6 0.00 0.00 0.00 70 1014.0
20260510031548 12 69 0.0 1.6 0.00 0.00 0.00 78 1013.7
20260510030106 13 147 0.0 1.6 0.00 0.00 0.00 80 1013.4
20260510024547 14 84 0.0 0.0 0.00 0.00 0.00 78 1013.2
20260510023046 15 124 0.0 0.0 0.00 0.00 0.00 76 1012.9
20260510021542 16 314 0.0 1.6 0.00 0.00 0.00 72 1012.9
20260510020038 16 194 0.0 3.2 0.00 0.00 0.00 70 1012.8
20260510014538 17 333 0.0 4.8 0.00 0.00 0.00 68 1012.9
20260510013028 17 126 0.0 3.2 0.00 0.00 0.00 66 1012.9
20260510011524 18 96 0.0 8.0 0.00 0.00 0.00 65 1012.9
20260510010025 18 101 0.0 4.8 0.00 0.00 0.00 63 1012.9
20260510004515 19 105 0.0 4.8 0.00 0.00 0.00 62 1013.1
20260510003010 19 219 1.6 9.7 0.00 0.00 0.00 60 1013.0
20260510001506 20 176 0.0 4.8 0.00 0.00 0.00 59 1013.0
20260510000002 20 203 0.0 6.4 0.00 0.00 0.00 56 1013.4
20260509234600 21 164 0.0 3.2 0.00 0.00 0.00 55 1013.4
20260509233101 21 128 0.0 6.4 0.00 0.00 0.00 56 1013.6
20260509231552 21 282 0.0 6.4 0.00 0.00 0.00 52 1013.7
20260509230044 21 6 0.0 4.8 0.00 0.00 0.00 50 1014.0
20260509224539 21 230 0.0 6.4 0.00 0.00 0.00 47 1014.0
20260509223043 21 210 0.0 6.4 0.00 0.00 0.00 43 1014.3
20260509221535 21 53 0.0 8.0 0.00 0.00 0.00 36 1014.6
20260509220029 21 172 0.0 6.4 0.00 0.00 0.00 34 1014.6
20260509214522 21 148 0.0 3.2 0.00 0.00 0.00 34 1014.8
20260509213017 21 274 0.0 8.0 0.00 0.00 0.00 33 1014.9
20260509211513 20 188 1.6 6.4 0.00 0.00 0.00 32 1015.0
20260509210109 20 262 0.0 9.7 0.00 0.00 0.00 33 1014.9
20260509204503 20 32 3.2 14.5 0.00 0.00 0.00 31 1015.1
20260509203111 20 176 0.0 14.5 0.00 0.00 0.00 31 1015.2
20260509201602 20 134 4.8 14.5 0.00 0.00 0.00 33 1015.4
20260509200106 20 158 0.0 16.1 0.00 0.00 0.00 32 1015.6
20260509194548 20 249 0.0 4.8 0.00 0.00 0.00 31 1015.8
20260509193102 19 297 0.0 9.7 0.00 0.00 0.00 34 1015.8
20260509191541 19 195 4.8 9.7 0.00 0.00 0.00 31 1016.1
20260509190036 19 126 3.2 11.3 0.00 0.00 0.00 30 1016.2
20260509184539 18 9 1.6 8.0 0.00 0.00 0.00 30 1016.3
20260509183026 19 105 4.8 9.7 0.00 0.00 0.00 29 1016.5
20260509181521 18 32 1.6 11.3 0.00 0.00 0.00 32 1016.5
20260509180016 18 172 4.8 9.7 0.00 0.00 0.00 29 1016.6
20260509174515 18 168 3.2 11.3 0.00 0.00 0.00 29 1016.7
20260509173009 17 86 3.2 8.0 0.00 0.00 0.00 32 1016.5
20260509171505 17 131 1.6 11.3 0.00 0.00 0.00 33 1016.5
20260509164555 16 18 3.2 11.3 0.00 0.00 0.00 35 1016.6
20260509163058 16 189 3.2 11.3 0.00 0.00 0.00 36 1016.8
20260509161550 16 94 4.8 11.3 0.00 0.00 0.00 37 1016.8
20260509160043 15 295 3.2 16.1 0.00 0.00 0.00 39 1016.8
20260509154538 15 135 4.8 14.5 0.00 0.00 0.00 39 1016.9
20260509153036 14 79 3.2 12.9 0.00 0.00 0.00 41 1016.9
20260509151528 13 243 6.4 17.7 0.00 0.00 0.00 40 1016.9
20260509150024 13 181 3.2 16.1 0.00 0.00 0.00 43 1017.0
20260509144520 12 226 3.2 11.3 0.00 0.00 0.00 44 1017.0
20260509143019 12 77 1.6 6.4 0.00 0.00 0.00 48 1017.1